SCOUT A DEB, 2989

Orbit data source: Space-Track

SCOUT A DEB, 2989 is space debris in LEO originally from a launch on Fri, 28 Jan 1966 UTC launched from the Air Force Western Test Range (AFWTR). Debris objects in space refer to the collection of defunct objects orbiting the Earth. Examples of debris include non-operational satellites, rocket bodies, and fragments generated from explosions, collisions, or faulty payload assembly.

Loading next visibility...
Identifier
2989, 1966-005F
Orbit
LEO
Country
Flag of USUS
Related business
Manufacturer
Unknown
Mission
Spacecraft
Bus & Motor
Unknown
Mass
Unknown
Launch date (UTC)
1966-01-28 (60 years ago)
Launch vehicle
Unknown
Launch site
Air Force Western Test Range (AFWTR)
Object type
Payload
Rocket body
Debris
Shape & HBR
Unknown shape, 0.1 m
Radar Cross Section
Small (<0.1 m²)

Expand to show TLE details & history
Last TLE update: 7 hours ago

TLE from 7 hours ago
0 SCOUT A DEB
1 02989U 66005F   25293.49834906  .00001047  00000-0  66698-3 0  9999
2 02989  89.6606 293.1776 0106674 287.2303  71.7223 14.00340818963457
Epoch: 2025-10-20T11:57Z
TLE epoch observation values (Epoch: 2025-10-20T11:57:37.358Z)
Latitude
-0.00005°
Longitude
84.57214°
Altitude
872.062 km
Speed
7.428 km/s
True Right ascension
19h 32m 42s
True Declination
0° 00' 00"
Sunlit
Object was in daylight at epoch
Visualization orbit readout
Latitude
Unknown
Longitude
Unknown
Altitude
Unknown
Speed
Unknown
Apparent Right ascension
Unknown
Apparent Declination
Unknown
Sunlit
N/A
Visualization observer readout
Local Sidereal Time
14:06:26
Azimuth
Unknown
Elevation
Unknown
Doppler factor
Unknown
Orbital elements
Apogee altitude
967.119 km
Perigee altitude
812.064 km
Semi-major axis
7,267.729 km
Eccentricity
0.01067
Inclination
89.6606°
RAAN
293.1776°
Arg. of periapsis
287.2303°
True anomaly
72.88781°
Mean anomaly
71.7223°
Eccentric anomaly
72.30458°
Mean motion
3.50304 °/min
Orbital period
102.77 mins
BSTAR
0.00066698
Loading maneuver chart data...
Computing Atmospheric mass density...
Loading historical data...
Loading historical data...
Loading historical data...
Loading historical data...
Loading historical data...
Loading historical data...
Loading historical data...

Documentation

Showing up to 5 results
|